Probability
32 29 52 68 55 16 3 0 0 0 0 0 0 0 3 3 3 3 6 13 19 26 29 45 65 68 71 68 65 65 65 68 61 55 52 61 65 65 58 58 55 58 48 39 39 42 45 45 42
29 61 68 61 29 0 0 0 0 0 0 0 0 3 3 3 3 6 6 16 16 23 29 39 65 65 65 65 58 61 61 61 58 58 58 55 48 55 55 48 45 48 42 35 32 32 32 39 35
45 61 61 48 10 0 0 0 0 0 0 0 0 0 3 3 6 6 6 16 19 23 32 48 65 65 68 68 68 65 61 61 55 55 65 58 52 55 58 52 42 42 32 42 45 26 29 29 32
71 68 52 6 0 0 0 0 0 0 0 0 0 0 3 6 6 6 6 10 10 13 16 45 61 61 68 65 65 68 71 71 61 58 61 52 42 35 39 35 39 35 42 32 32 29 42 39 39
81 45 10 3 0 0 0 0 0 0 3 3 3 3 6 6 6 6 6 10 10 13 13 29 65 58 61 61 65 65 74 68 61 58 42 45 35 39 42 35 35 26 29 39 32 35 45 39 42
39 19 3 0 0 0 0 0 0 0 0 0 6 10 6 6 16 16 6 6 10 13 13 32 58 55 61 65 68 65 68 68 55 48 42 45 29 32 35 29 45 23 23 29 39 48 48 48 42
19 0 0 0 0 0 0 0 0 0 0 0 0 6 6 6 13 13 13 10 10 16 16 32 35 48 61 61 68 71 71 65 52 48 42 42 32 35 39 35 42 35 35 39 32 42 39 32 39
3 0 0 0 0 0 0 0 0 0 0 0 0 3 10 10 10 6 10 16 16 13 19 26 32 48 45 45 65 71 55 58 55 52 39 39 48 45 45 48 42 32 42 45 29 29 26 32 39
0 0 0 0 0 0 0 0 0 0 0 0 3 6 10 6 6 6 10 16 19 23 29 26 39 42 39 26 42 65 61 52 55 58 52 45 42 26 26 19 39 29 29 35 39 32 32 23 35
0 0 0 0 0 0 0 0 0 0 0 0 3 3 6 6 10 16 13 16 23 23 19 39 45 39 26 26 71 71 58 68 71 68 65 61 65 45 13 35 45 42 32 26 32 39 26 19 19
0 0 0 0 0 0 0 0 0 0 0 0 3 3 0 3 3 10 10 19 26 29 32 26 45 55 48 55 55 74 74 74 71 71 68 68 58 45 42 42 42 45 35 32 32 32 26 23 29
0 0 0 0 0 0 0 0 0 0 0 0 3 3 3 3 6 6 16 23 32 32 29 29 48 71 77 65 58 61 61 71 61 68 58 61 74 65 55 65 55 45 45 48 35 39 35 26 29
0 0 0 0 0 0 0 0 0 0 0 0 3 3 3 6 6 10 19 19 19 45 39 52 74 77 84 84 77 55 71 61 61 65 61 65 65 65 55 58 61 55 55 48 48 42 35 39 32
0 0 0 0 0 0 0 0 0 0 0 0 3 6 6 6 3 10 16 16 16 23 35 52 74 84 87 84 84 81 71 77 71 71 65 61 61 68 68 65 58 58 58 65 52 45 39 48 42
0 0 0 0 0 0 0 0 0 0 0 3 6 6 6 19 13 13 23 26 19 32 61 61 65 74 84 84 77 71 68 68 74 74 65 71 68 77 68 68 68 68 61 55 58 45 52 52 42
0 0 0 0 0 0 0 0 0 0 0 0 0 10 16 16 16 16 16 26 58 55 71 65 29 71 87 90 87 81 74 81 81 74 77 68 71 71 74 68 68 68 61 58 61 68 58 52 52
0 0 0 0 0 0 0 0 0 0 0 0 0 6 13 16 19 23 19 16 48 71 74 74 84 87 90 90 90 87 84 84 77 81 81 81 74 65 68 68 71 65 68 58 52 58 65 58 55
0 0 0 0 0 0 0 0 0 0 0 0 3 6 13 16 19 19 26 29 48 77 81 84 84 90 90 87 90 84 87 81 81 84 84 81 74 68 74 74 68 65 68 68 71 68 68 68 65
0 0 0 0 0 0 0 0 0 0 3 3 3 6 10 13 13 19 26 29 42 74 87 87 87 87 90 90 90 87 84 84 81 81 81 77 74 71 81 68 71 74 71 71 61 68 58 61 65
0 0 0 0 0 0 0 0 0 0 3 3 10 10 16 19 26 29 32 29 52 81 87 87 87 87 90 90 87 87 84 84 84 84 77 77 77 74 58 77 71 74 77 74 77 74 74 68 61
0 0 0 0 0 0 0 0 0 0 0 3 6 10 19 26 29 35 35 42 42 68 84 77 87 87 90 90 84 81 84 81 81 77 81 77 71 74 74 74 74 74 74 77 74 71 77 68 68
0 0 0 0 0 0 0 0 0 0 6 3 10 13 10 19 32 32 48 58 55 68 77 87 87 87 84 87 87 77 81 81 81 81 81 74 71 74 74 71 74 74 71 74 71 65 65 68 58
0 0 0 0 0 0 0 0 0 0 6 10 6 13 10 19 29 29 35 55 58 55 68 84 87 84 81 84 84 84 84 84 84 81 77 74 77 65 74 68 65 68 68 68 68 71 74 71 58
0 0 0 0 0 0 0 0 3 6 3 3 3 6 13 19 26 32 32 58 52 55 58 71 84 81 81 81 81 81 81 81 81 81 77 74 68 68 65 58 68 68 65 68 65 68 68 71 65
0 0 0 0 0 0 0 0 0 0 3 3 3 6 13 19 32 42 42 55 55 55 58 74 81 81 81 81 81 81 81 81 81 77 68 65 58 58 61 55 65 71 65 61 61 65 68 68 65
0 0 0 0 0 0 0 3 3 0 0 0 10 10 10 23 32 39 39 58 52 52 71 77 81 81 81 81 81 81 81 81 77 74 68 61 58 58 58 61 65 65 65 58 61 58 61 68 68
0 0 0 0 0 0 0 3 3 3 3 6 3 16 10 16 35 39 35 39 55 55 68 77 81 81 81 81 81 81 74 71 71 71 65 58 58 55 48 52 52 58 61 61 65 65 68 65 68
0 0 0 0 3 0 0 3 6 16 10 13 16 19 19 16 35 35 39 48 52 61 68 71 81 81 81 81 81 71 71 71 71 65 61 58 61 58 55 52 55 65 65 68 68 65 68 68 71
0 0 0 0 3 0 0 3 10 13 16 16 16 23 23 26 32 42 42 48 48 58 61 77 81 81 81 77 74 71 68 68 65 65 61 65 61 55 58 55 55 58 58 58 61 58 61 61 65
0 0 0 0 3 0 0 3 3 10 13 16 23 23 26 29 35 48 55 58 58 65 65 71 77 77 77 74 68 65 65 65 65 65 61 58 52 58 58 55 52 52 55 58 58 58 58 58 65
Height
5876 5874 5874 5873 5872 5873 5873 5872 5871 5870 5869 5868 5867 5867 5866 5866 5867 5868 5866 5865 5866 5866 5866 5867 5867 5867 5867 5868 5868 5868 5868 5868 5868 5867 5868 5868 5868 5868 5868 5868 5869 5869 5870 5871 5872 5873 5874 5875 5876
5879 5878 5877 5875 5875 5877 5876 5874 5873 5872 5871 5870 5869 5869 5868 5867 5868 5867 5866 5867 5867 5867 5868 5868 5868 5868 5868 5869 5869 5869 5870 5869 5869 5869 5869 5869 5869 5869 5869 5870 5870 5870 5871 5872 5873 5874 5875 5876 5877
5882 5880 5878 5879 5880 5880 5878 5877 5875 5874 5873 5872 5871 5871 5870 5869 5869 5868 5868 5868 5868 5869 5869 5870 5870 5870 5870 5870 5871 5871 5871 5871 5870 5870 5870 5870 5870 5871 5871 5871 5871 5872 5872 5874 5875 5875 5876 5876 5877
5883 5882 5883 5885 5884 5883 5881 5879 5878 5876 5875 5874 5873 5873 5871 5871 5871 5870 5870 5870 5870 5870 5871 5871 5871 5871 5871 5871 5872 5872 5872 5872 5872 5872 5872 5872 5872 5872 5872 5873 5873 5873 5874 5875 5876 5876 5877 5877 5878
5884 5885 5887 5888 5887 5886 5884 5882 5880 5879 5877 5877 5876 5875 5874 5873 5873 5873 5872 5872 5872 5872 5872 5873 5873 5873 5873 5873 5873 5873 5873 5873 5873 5873 5873 5873 5873 5874 5874 5874 5875 5875 5876 5876 5877 5878 5878 5879 5880
5889 5890 5893 5892 5891 5889 5886 5885 5883 5882 5880 5879 5878 5877 5877 5876 5875 5875 5874 5874 5874 5874 5874 5874 5875 5875 5875 5874 5874 5874 5874 5874 5874 5875 5875 5875 5875 5875 5876 5876 5876 5877 5877 5878 5879 5879 5880 5880 5881
5894 5895 5896 5894 5894 5892 5890 5888 5886 5885 5883 5882 5881 5880 5879 5878 5878 5877 5877 5877 5877 5877 5876 5876 5876 5876 5876 5876 5876 5876 5875 5875 5876 5876 5876 5876 5877 5877 5877 5878 5878 5878 5879 5880 5880 5881 5881 5881 5882
5898 5900 5899 5898 5896 5895 5893 5891 5889 5888 5886 5885 5884 5883 5882 5882 5880 5880 5880 5879 5879 5879 5879 5879 5878 5878 5878 5878 5877 5877 5877 5877 5877 5877 5878 5878 5878 5878 5878 5879 5879 5879 5880 5881 5881 5882 5882 5882 5883
5903 5904 5902 5901 5899 5898 5896 5895 5893 5891 5890 5889 5887 5886 5885 5884 5883 5883 5882 5882 5881 5881 5881 5880 5880 5879 5879 5879 5879 5879 5879 5878 5879 5879 5879 5880 5880 5880 5880 5880 5880 5881 5881 5882 5882 5882 5883 5883 5884
5907 5906 5905 5903 5902 5900 5899 5898 5896 5895 5893 5892 5890 5889 5888 5887 5886 5885 5885 5884 5884 5883 5883 5883 5882 5882 5882 5882 5881 5881 5881 5880 5880 5880 5880 5881 5881 5882 5881 5881 5882 5882 5882 5882 5882 5883 5883 5884 5884
5909 5908 5907 5906 5905 5903 5902 5901 5899 5898 5896 5895 5894 5892 5891 5890 5889 5888 5887 5887 5886 5886 5885 5885 5884 5884 5883 5883 5883 5883 5883 5882 5882 5882 5882 5882 5883 5883 5883 5883 5883 5883 5883 5883 5883 5883 5884 5885 5885
5912 5911 5910 5909 5907 5907 5906 5904 5903 5902 5900 5899 5897 5896 5894 5893 5892 5891 5890 5889 5889 5888 5888 5887 5886 5886 5885 5885 5885 5885 5884 5884 5884 5884 5884 5884 5885 5885 5885 5885 5885 5885 5884 5884 5884 5884 5886 5886 5887
5914 5913 5912 5911 5910 5910 5909 5908 5906 5905 5903 5902 5900 5899 5898 5896 5895 5894 5893 5892 5891 5890 5890 5889 5889 5888 5887 5887 5887 5887 5887 5886 5886 5886 5886 5886 5886 5886 5886 5886 5886 5886 5886 5886 5886 5886 5887 5887 5887
5916 5915 5915 5914 5914 5913 5912 5911 5910 5908 5907 5905 5904 5902 5901 5900 5898 5897 5896 5895 5894 5893 5892 5892 5891 5890 5890 5889 5889 5889 5889 5889 5888 5888 5888 5888 5888 5888 5887 5887 5887 5887 5887 5887 5887 5887 5887 5888 5888
5918 5918 5918 5917 5917 5916 5915 5914 5913 5912 5910 5909 5907 5906 5904 5903 5901 5900 5899 5898 5897 5896 5895 5894 5894 5893 5892 5892 5891 5891 5891 5891 5891 5890 5890 5890 5889 5889 5888 5888 5888 5888 5888 5888 5888 5888 5888 5888 5888
5921 5921 5921 5921 5920 5919 5919 5918 5916 5915 5913 5911 5910 5909 5907 5906 5904 5903 5902 5900 5900 5899 5898 5897 5896 5895 5895 5894 5894 5893 5893 5893 5893 5892 5892 5891 5890 5890 5890 5889 5889 5889 5888 5888 5888 5888 5888 5888 5888
5924 5925 5924 5924 5923 5923 5922 5921 5919 5918 5916 5914 5913 5911 5910 5909 5907 5906 5905 5903 5902 5901 5901 5900 5899 5898 5898 5897 5896 5896 5895 5895 5894 5894 5893 5893 5892 5892 5891 5891 5890 5890 5889 5889 5889 5888 5888 5888 5888
5926 5927 5927 5926 5925 5925 5924 5923 5922 5920 5919 5917 5915 5914 5913 5911 5910 5909 5907 5906 5905 5904 5903 5902 5901 5901 5900 5899 5899 5898 5897 5897 5896 5895 5895 5894 5894 5893 5893 5892 5892 5891 5890 5890 5889 5888 5888 5888 5888
5928 5929 5928 5927 5926 5926 5926 5925 5923 5922 5921 5919 5918 5916 5915 5914 5912 5911 5910 5909 5907 5906 5905 5905 5904 5903 5902 5902 5901 5900 5899 5899 5898 5897 5896 5896 5895 5894 5894 5893 5893 5892 5891 5890 5889 5889 5889 5889 5888
5928 5929 5929 5928 5928 5927 5926 5925 5924 5924 5923 5922 5920 5919 5917 5916 5915 5913 5912 5910 5910 5909 5908 5907 5906 5905 5904 5904 5903 5902 5901 5900 5899 5898 5897 5897 5896 5895 5895 5894 5893 5893 5892 5891 5890 5890 5890 5889 5888
5928 5929 5929 5928 5928 5928 5927 5927 5926 5925 5924 5923 5922 5920 5919 5918 5917 5915 5914 5913 5912 5910 5909 5909 5908 5907 5906 5905 5904 5903 5902 5901 5900 5899 5898 5898 5897 5896 5895 5895 5894 5893 5892 5891 5891 5890 5890 5889 5889
5927 5928 5928 5928 5927 5928 5929 5928 5927 5925 5924 5924 5923 5922 5920 5919 5918 5917 5916 5914 5913 5912 5911 5910 5909 5908 5907 5906 5905 5904 5903 5902 5901 5900 5899 5898 5897 5897 5896 5895 5894 5893 5892 5891 5891 5890 5889 5889 5888
5926 5926 5926 5927 5928 5928 5929 5929 5928 5926 5924 5924 5923 5922 5921 5920 5919 5918 5917 5916 5914 5913 5912 5911 5910 5909 5908 5907 5906 5905 5904 5903 5902 5901 5900 5899 5898 5897 5896 5895 5894 5893 5892 5891 5890 5889 5889 5888 5887
5923 5925 5925 5926 5927 5928 5929 5929 5928 5926 5925 5924 5923 5922 5922 5921 5920 5919 5918 5917 5916 5914 5913 5912 5911 5910 5909 5908 5907 5906 5905 5904 5903 5902 5901 5900 5898 5897 5896 5895 5893 5892 5891 5890 5889 5889 5888 5887 5886
5922 5923 5925 5925 5926 5927 5929 5929 5928 5926 5925 5924 5922 5923 5922 5921 5921 5920 5918 5917 5916 5915 5914 5913 5912 5911 5910 5909 5908 5907 5906 5905 5904 5903 5901 5900 5899 5897 5896 5894 5893 5892 5891 5889 5888 5888 5887 5886 5885
5919 5921 5923 5925 5926 5928 5928 5928 5927 5925 5925 5924 5923 5922 5922 5921 5920 5920 5919 5917 5916 5915 5914 5914 5913 5912 5911 5910 5909 5908 5907 5905 5904 5903 5901 5900 5899 5897 5895 5894 5892 5891 5890 5888 5887 5887 5886 5885 5884
5917 5918 5921 5923 5924 5926 5925 5926 5925 5923 5923 5923 5923 5922 5921 5920 5919 5918 5918 5917 5916 5915 5915 5914 5913 5912 5911 5910 5909 5908 5907 5905 5904 5902 5901 5899 5898 5896 5894 5893 5892 5890 5888 5887 5886 5885 5884 5883 5882
5914 5916 5919 5921 5921 5923 5925 5923 5923 5921 5922 5921 5921 5921 5920 5919 5918 5917 5917 5916 5915 5914 5914 5913 5912 5912 5911 5910 5909 5908 5906 5905 5903 5902 5900 5898 5897 5895 5893 5892 5891 5889 5887 5886 5884 5883 5882 5881 5880
5910 5913 5915 5917 5919 5921 5922 5923 5920 5919 5919 5919 5919 5918 5918 5918 5917 5916 5916 5915 5914 5913 5913 5912 5911 5911 5910 5908 5908 5907 5905 5904 5902 5901 5899 5897 5896 5894 5892 5890 5889 5887 5886 5884 5882 5881 5880 5879 5878
5906 5908 5911 5913 5914 5916 5917 5920 5916 5916 5916 5916 5916 5916 5916 5916 5915 5914 5914 5913 5913 5912 5911 5911 5910 5909 5908 5907 5906 5905 5904 5903 5901 5899 5897 5896 5894 5892 5891 5889 5887 5885 5884 5882 5880 5879 5878 5877 5876
Wind_Speed
17 17 16 17 18 15 11 10 10 9 8 7 6 6 6 5 6 6 7 8 8 8 7 7 7 7 7 7 7 7 7 7 7 7 6 6 6 6 6 6 6 7 8 8 7 7 7 6 6
16 15 17 19 16 11 10 10 9 10 9 8 7 6 5 5 6 7 7 8 8 7 7 7 6 6 7 7 7 7 7 7 7 6 6 6 6 6 6 7 7 7 8 7 7 6 6 6 5
16 17 20 17 11 10 10 10 10 10 10 10 9 8 7 7 7 7 7 8 8 7 7 6 6 6 7 7 7 7 7 6 6 6 6 7 7 6 6 6 7 6 7 8 7 7 6 7 6
18 21 20 14 10 10 10 10 10 10 10 10 10 9 9 8 8 8 8 9 9 8 8 7 7 6 7 7 7 7 6 6 6 7 7 7 7 8 7 7 7 7 7 8 7 7 7 7 6
20 21 17 11 10 10 11 11 11 10 11 12 11 11 10 9 9 9 9 9 9 9 8 8 7 6 7 7 7 6 6 6 7 7 8 8 8 8 8 8 8 7 7 7 7 6 6 5 5
20 18 13 10 10 11 11 12 12 12 12 13 12 12 11 10 10 11 10 10 9 9 9 9 8 8 8 7 7 7 6 6 6 7 8 8 9 8 8 8 8 7 7 7 6 6 5 4 3
19 15 11 10 10 10 11 12 13 13 13 14 13 12 12 11 11 11 11 11 10 10 10 9 8 8 8 8 7 6 7 7 6 7 7 8 8 8 7 7 7 7 7 7 6 4 3 3 3
16 13 10 10 10 10 12 13 13 14 14 14 13 12 12 12 12 12 11 11 10 10 10 9 9 9 8 8 8 7 7 8 7 7 7 7 7 6 7 6 6 6 6 5 5 4 3 2 2
13 11 10 9 10 11 12 13 13 14 14 14 14 13 12 13 13 12 12 11 10 9 9 9 9 9 8 8 8 8 7 7 7 7 7 7 6 6 7 6 6 6 5 4 4 3 2 2 3
9 8 9 10 11 12 13 13 14 14 14 14 14 14 13 13 14 13 12 11 10 10 10 9 9 8 8 8 8 7 7 7 7 7 7 7 7 6 6 6 7 6 5 4 3 3 4 4 4
8 9 10 12 13 13 13 14 15 16 16 15 15 15 14 14 13 13 13 12 11 10 10 10 10 9 8 8 7 7 7 7 7 7 7 7 7 7 7 6 6 5 4 4 4 5 5 4 3
8 9 11 13 14 14 14 15 15 16 16 16 16 16 15 14 14 13 13 12 11 10 10 10 10 10 9 9 9 8 8 7 7 7 7 7 7 6 6 5 4 4 4 3 4 4 4 3 2
9 9 11 13 14 14 14 15 15 16 16 16 15 16 16 15 15 14 14 13 12 11 11 11 11 10 10 9 9 9 8 7 8 8 7 7 6 6 5 5 4 3 4 3 3 4 4 3 2
9 9 11 13 12 13 13 14 15 16 16 16 15 15 16 15 15 15 14 14 13 12 12 11 10 10 10 9 9 9 8 8 8 8 7 7 6 6 5 5 4 3 3 3 3 3 2 2 2
9 9 10 12 11 12 13 14 15 15 15 15 15 15 15 15 15 15 14 14 13 12 12 11 11 10 10 9 9 9 9 9 8 8 7 6 6 6 6 5 4 4 4 3 3 3 2 2 2
9 8 8 10 10 11 12 12 13 13 14 14 15 14 14 14 14 14 14 13 13 12 12 11 11 10 10 9 9 9 9 9 9 8 8 7 7 7 7 6 5 5 5 4 4 3 3 3 3
6 5 5 7 8 7 8 9 11 12 13 13 14 14 14 13 13 13 13 13 12 12 11 11 11 11 10 10 9 9 9 9 8 8 8 8 8 8 7 7 6 6 6 5 4 4 4 4 4
4 3 2 4 5 5 5 7 9 11 12 12 13 13 13 13 13 13 12 12 12 12 11 11 11 11 10 10 9 9 8 8 8 8 7 7 7 7 7 7 6 6 6 5 5 5 5 5 5
4 2 1 1 3 4 4 6 8 10 11 12 12 11 11 11 12 11 12 12 11 11 11 11 10 10 10 10 9 9 8 8 7 7 7 7 6 6 6 6 6 6 6 5 5 5 5 5 5
5 4 2 1 2 3 4 5 7 8 9 9 10 10 10 11 10 10 10 11 11 10 10 10 10 9 9 9 9 9 8 8 7 7 7 6 6 6 6 6 6 6 7 7 6 5 5 5 6
6 5 5 4 1 1 3 5 6 7 8 8 8 9 9 9 9 10 10 10 10 10 9 9 9 9 9 9 9 9 9 8 8 8 7 7 7 6 6 6 7 7 7 6 6 6 5 6 6
7 7 7 5 3 2 4 6 8 7 7 7 8 8 8 9 9 9 9 9 9 9 9 8 8 8 8 9 9 9 9 9 9 8 8 8 8 7 7 7 7 7 7 7 6 6 6 6 6
9 9 8 7 4 3 5 7 8 8 7 8 8 8 7 8 8 8 9 9 8 9 8 8 8 8 8 9 9 9 9 9 9 8 8 8 8 8 8 8 8 8 8 8 7 6 7 7 7
11 8 6 6 5 6 6 6 8 8 8 8 6 7 7 7 7 8 8 8 8 9 9 9 8 8 8 8 9 9 9 9 9 9 9 8 8 9 9 9 9 8 9 8 7 7 8 8 8
12 10 8 7 7 7 7 8 10 9 9 9 7 7 8 7 7 8 8 7 7 8 9 9 9 8 8 8 8 9 9 10 9 10 9 9 9 9 9 9 9 9 9 9 8 8 9 9 8
14 12 9 8 7 8 9 10 12 11 9 10 9 8 8 8 8 8 8 8 8 8 8 9 9 8 8 8 8 9 10 10 10 10 10 10 10 10 10 9 9 9 9 9 9 9 9 9 9
14 13 10 10 9 9 10 10 13 14 12 10 10 10 10 9 10 10 9 8 8 8 8 9 9 8 8 8 9 9 10 10 11 11 11 11 11 11 10 10 10 10 10 10 9 9 9 9 9
16 15 13 13 13 11 12 12 13 15 14 13 11 10 10 9 10 10 10 10 10 9 9 9 9 9 9 9 9 9 10 11 11 12 12 12 12 12 12 11 12 11 11 10 10 9 9 10 10
17 17 17 16 15 13 13 14 14 14 14 15 13 12 12 11 11 11 11 11 11 10 11 10 10 10 10 10 10 11 11 12 11 12 13 13 13 13 13 12 12 12 12 11 11 10 10 10 10
19 19 18 18 17 16 14 15 16 15 15 15 15 14 14 13 13 13 12 12 12 12 11 12 11 12 12 12 12 12 12 12 13 13 13 13 13 13 13 13 13 12 12 12 12 12 11 11 11
Wind_Direction
68 69 68 64 57 56 59 64 61 60 62 63 65 70 80 87 92 104 106 108 109 107 103 108 110 114 118 120 118 116 111 111 113 115 114 120 125 124 119 123 131 130 127 126 124 121 125 129 133
67 70 66 60 55 45 53 60 58 59 61 60 64 70 78 81 88 98 103 102 98 100 100 103 103 108 121 119 116 114 110 108 108 113 112 110 116 125 122 121 131 128 133 135 131 125 129 139 141
73 68 61 53 44 40 50 54 56 61 58 61 65 71 75 79 86 92 95 97 95 97 101 98 93 106 120 120 116 113 110 105 104 107 106 110 111 112 120 121 126 127 129 136 136 135 137 146 148
72 64 59 49 38 43 47 51 54 58 59 62 65 70 73 76 82 91 92 95 95 94 93 93 95 106 115 119 115 110 107 104 103 104 100 108 113 110 114 123 124 123 127 129 131 135 137 139 143
67 61 55 42 40 47 52 54 54 54 60 63 66 69 72 74 80 85 85 89 93 93 92 91 97 105 108 111 111 107 108 108 106 104 100 100 110 111 109 113 112 114 119 122 122 121 119 121 123
63 58 50 47 47 50 54 57 57 55 58 63 66 66 68 73 79 81 81 83 87 88 92 89 92 92 93 96 102 105 109 109 105 104 101 102 105 106 108 111 113 110 113 117 121 114 110 111 109
69 59 44 48 55 54 56 55 57 55 56 60 65 68 71 75 78 78 77 78 82 83 83 84 87 85 83 85 90 97 103 107 107 106 103 101 101 103 105 107 114 118 119 117 117 116 102 96 95
71 64 50 48 54 57 60 58 57 56 55 57 61 67 68 74 74 75 75 75 76 76 78 79 82 84 85 82 84 90 92 97 97 99 102 100 99 99 103 102 109 122 120 118 114 109 106 96 89
70 66 57 59 60 61 61 62 59 55 55 58 59 64 66 71 72 71 69 70 71 73 76 76 78 79 78 84 86 84 87 93 94 92 97 96 97 101 105 104 107 110 107 108 106 109 105 104 105
76 69 67 69 70 67 64 63 60 56 55 58 61 64 68 70 70 69 69 69 69 69 70 70 70 74 78 84 85 80 80 83 90 91 99 93 91 95 100 106 103 100 100 100 95 100 92 93 100
78 73 72 72 70 69 65 61 58 56 56 59 61 65 68 68 67 66 66 67 68 67 67 68 67 72 74 76 77 84 87 85 84 87 89 85 88 94 98 101 101 100 99 103 89 95 90 93 100
77 76 75 73 70 67 64 59 57 58 57 59 60 61 62 63 62 60 62 63 65 66 67 66 68 71 71 72 75 81 84 87 89 89 94 90 91 88 86 88 102 94 81 89 106 93 95 98 108
78 71 75 73 69 62 62 58 55 57 58 59 58 58 59 59 59 58 59 59 61 63 64 63 65 68 69 69 74 76 72 73 81 85 86 87 83 77 72 71 71 80 76 75 80 83 86 85 93
81 73 72 69 67 62 58 57 52 52 54 56 57 57 58 58 57 57 59 59 60 62 62 62 64 66 68 70 69 71 74 71 72 73 72 73 70 67 71 68 68 69 65 57 61 67 73 64 66
78 68 66 67 60 58 51 47 49 46 48 51 52 54 57 57 55 54 55 56 57 59 60 60 60 62 64 66 66 66 68 67 68 67 69 67 62 57 66 76 70 68 61 55 50 41 27 20 22
77 64 52 61 57 47 46 34 42 42 43 46 49 50 52 53 53 53 53 52 54 54 55 57 57 58 59 61 62 63 62 64 63 61 60 56 54 52 58 65 58 46 46 41 39 31 24 14 6
78 77 37 57 59 48 42 30 32 36 38 41 43 45 46 49 49 49 50 49 50 51 53 54 56 57 59 59 58 59 57 56 56 56 55 51 49 48 49 49 42 35 36 35 32 25 19 13 7
105 95 20 37 65 53 37 27 28 30 32 35 36 38 38 40 43 44 46 47 48 49 51 52 53 54 54 53 53 55 53 50 47 46 45 43 39 37 37 37 33 25 23 20 16 15 14 11 2
140 149 192 19 73 71 29 23 21 16 19 24 27 30 31 33 37 38 40 42 44 46 48 49 49 48 47 45 44 45 46 43 41 39 35 31 28 29 28 26 23 19 18 15 14 14 11 6 0
172 202 227 255 43 58 35 18 13 3 9 16 22 26 27 31 34 37 38 41 41 43 43 44 43 43 41 38 37 37 36 34 31 29 28 25 23 22 19 18 19 19 16 15 13 10 10 6 359
193 222 233 237 227 1 359 360 2 356 356 3 12 16 19 23 27 32 34 36 36 37 38 37 37 37 36 35 33 31 30 28 26 24 23 23 19 15 11 14 15 13 11 12 8 4 1 359 353
210 220 232 241 251 306 328 319 329 331 340 342 353 4 10 15 19 24 28 30 31 33 33 33 30 29 28 27 27 27 25 23 23 21 20 18 16 14 10 8 5 3 1 0 356 351 348 346 341
220 223 223 230 222 251 288 294 310 320 321 326 335 351 360 5 9 15 20 24 27 27 28 29 25 24 24 23 24 23 23 20 18 16 13 9 6 5 1 359 355 353 354 352 347 343 341 342 343
217 225 229 239 234 246 261 275 294 306 305 303 314 335 342 352 357 360 7 15 19 19 22 23 18 16 19 22 22 21 19 16 12 10 7 4 2 360 355 354 352 350 349 347 345 339 335 336 341
218 223 234 247 253 258 266 260 278 289 295 299 301 314 321 331 341 346 348 358 6 11 14 13 12 9 12 15 14 12 11 9 6 4 2 0 359 355 353 352 349 346 346 343 339 334 331 330 332
225 221 217 230 244 261 261 259 270 275 281 292 298 304 306 316 324 330 336 335 343 351 359 3 5 2 1 3 3 1 0 0 357 355 354 355 352 349 349 347 345 345 345 343 337 333 329 326 326
228 228 225 240 240 256 263 269 273 285 285 284 290 295 302 306 312 320 326 321 322 332 341 346 349 350 349 349 351 354 355 354 351 348 349 348 346 345 344 343 343 341 340 339 335 335 332 330 328
225 224 227 233 239 239 253 270 277 283 285 287 287 286 288 294 299 310 319 317 311 316 329 334 334 333 333 337 341 343 343 342 342 344 343 342 344 343 338 333 334 333 332 332 332 329 328 328 324
229 225 225 227 230 237 250 257 267 270 276 284 286 281 282 285 290 298 307 311 309 309 316 321 321 324 325 325 326 333 336 338 334 335 335 334 334 335 335 328 328 329 327 324 325 325 324 324 322
232 228 226 233 235 231 245 263 270 272 275 279 281 282 282 280 283 288 295 301 303 308 308 310 311 314 315 316 316 319 321 326 330 331 333 332 334 334 333 331 328 326 323 322 321 319 318 319 318